Overview Statistics Trail Chart Weather Telemetry Raw packets
 

This is the latest recevied weather packets stored in our database for station/object N6GPM. If no packets are shown the sender has not sent any weather packets the latest 10 day(s).

<< 81 82 83 84 85 86 87 >>
Time Temp. Humidity Pressure Rain* Wind** Luminosity Snow
1788089899 22.22° C 72% 1016.3 hPa 0 mm - 0 W/m² -
1788089594 22.22° C 71% 1016.5 hPa 0 mm - 0 W/m² -
1788089290 22.22° C 70% 1016.3 hPa 0 mm - 0 W/m² -
1788088986 22.22° C 71% 1016.2 hPa 0 mm - 0 W/m² -
1788088682 22.22° C 71% 1016.2 hPa 0 mm - 0 W/m² -
1788088377 22.22° C 71% 1016.2 hPa 0 mm - 0 W/m² -
1788088076 22.22° C 71% 1016.3 hPa 0 mm - 0 W/m² -
1788087773 22.78° C 71% 1016.4 hPa 0 mm - 0 W/m² -
1788087472 22.78° C 71% 1016.4 hPa 0 mm - 0 W/m² -
1788087168 22.78° C 71% 1016.3 hPa 0 mm - 0 W/m² -
1788086864 22.78° C 70% 1016.3 hPa 0 mm - 0 W/m² -
1788086561 22.78° C 67% 1016.4 hPa 0 mm - 0 W/m² -
1788086260 22.78° C 67% 1016.1 hPa 0 mm - 0 W/m² -
1788085956 22.78° C 67% 1016.1 hPa 0 mm - 0 W/m² -
1788085653 22.78° C 68% 1016.2 hPa 0 mm - 0 W/m² -
1788085350 22.78° C 69% 1016 hPa 0 mm - 0 W/m² -
1788085045 22.78° C 69% 1016 hPa 0 mm - 0 W/m² -
1788084741 22.78° C 69% 1016.1 hPa 0 mm - 0 W/m² -
1788084434 22.78° C 68% 1016.2 hPa 0 mm - 0 W/m² -
1788084129 23.33° C 68% 1016.1 hPa 0 mm - 0 W/m² -
1788083828 23.33° C 66% 1016.2 hPa 0 mm - 0 W/m² -
1788083524 23.33° C 62% 1016 hPa 0 mm - 0 W/m² -
1788083220 23.33° C 61% 1016.1 hPa 0 mm - 0 W/m² -
1788082915 23.33° C 61% 1015.9 hPa 0 mm - 0 W/m² -
1788082610 23.89° C 60% 1016 hPa 0 mm - 0 W/m² -

* Rain latest hour (hover to see other rain measurements)
** Current wind speed in m/s (hover to see current wind gust speed)